Location: Binningen
(47.7924°N, 8.7261°E)
Time: 20:20:46
(UTC+00:00)

RESURS DK-1 - Pass Details

Date: 17 May 2021
Orbit: 553 x 564 km, 69.9° (Epoch: 21 June)

Event Time Altitude Azimuth Distance (km) Brightness Sun altitude
Rises 21:07:48 0° 335° (NNW) 2,767 7.6 -16.3°
Reaches altitude 10° 21:10:08 10° 344° (NNW) 1,867 6.2 -16.5°
Maximum altitude 21:14:04 39° 54° (NE) 855 3.3 -16.9°
Enters shadow 21:15:52 26° 105° (ESE) 1,143 3.5 -17.0°
